Home   Weather   Orange   Past weeks

Flag for USA Past Weather in Orange, California, USA — Yesterday and Last 2 Weeks

Now
79 °F

Passing clouds.


Feels Like: 81 °F
Forecast: 67 / 83 °F
Wind: 12 mph from Southwest

Location: John Wayne Airport-Orange County Airport

Current Time: Jul 23, 2017 at 1:54:54 pm

Latest Report: Jul 23, 2017 at 12:53 pm


Visibility: 10 mi

Pressure: 29.87 "Hg

Humidity: 62%

Dew Point: 65 °F

Location of OrangeLocation

Past Weather in Orange — Graph

°F

Orange Temperature Yesterday

Maximum temperature yesterday: 78 °F (at 10:53 am)
Minimum temperature yesterday: 68 °F (at 5:53 am)
Average temperature yesterday: 72 °F

High & Low Weather Summary for the Past Weeks

 TemperatureHumidityPressure
High88 °F (Jul 9, 10:53 am)93% (Jul 10, 5:53 am)30.02 "Hg (Jul 10, 5:53 am)
Low66 °F (Jul 14, 1:53 am)41% (Jul 9, 9:53 am)29.78 "Hg (Jul 8, 5:53 pm)
Average73 °F76%29.92 "Hg
* Reported Jul 8 11:53 am — Jul 23 11:53 am, Orange. Weather by CustomWeather, © 2017

Note: Actual official high and low records may vary slightly from our data, if they occured in-between our weather recording intervals... More about our weather records

Advertising

Orange Weather History for the Previous 24 Hours

Scroll right to see more
 ConditionsComfort  
Time TempWeatherWind HumidityBarometerVisibility
11:53 am
Sun, Jul 23
78 °FScattered clouds.12 mph66%29.88 "Hg10 mi
10:53 am77 °FPassing clouds.10 mph69%29.89 "Hg10 mi
9:53 am76 °FPassing clouds.6 mph72%29.89 "Hg10 mi
8:53 am74 °FScattered clouds.5 mph74%29.89 "Hg10 mi
7:53 am71 °FPassing clouds.No wind81%29.88 "Hg8 mi
6:53 am70 °FPassing clouds.No wind84%29.87 "Hg8 mi
5:53 am69 °FClear.No wind87%29.86 "Hg9 mi
4:53 am69 °FPassing clouds.No wind87%29.86 "Hg10 mi
3:53 am69 °FPassing clouds.3 mph87%29.85 "Hg10 mi
3:41 am70 °FPassing clouds.No wind84%29.86 "Hg10 mi
3:06 am70 °FPassing clouds.No wind84%29.86 "Hg10 mi
1:53 am69 °FMostly cloudy.No wind87%29.86 "Hg10 mi
1:27 am69 °FPassing clouds.3 mph87%29.88 "Hg10 mi
12:53 am69 °FClear.3 mph87%29.88 "Hg10 mi
11:53 pm
Sat, Jul 22
69 °FClear.5 mph87%29.89 "Hg10 mi
10:53 pm69 °FClear.5 mph87%29.89 "Hg9 mi
9:53 pm70 °FClear.7 mph84%29.88 "Hg9 mi
8:53 pm70 °FPassing clouds.9 mph84%29.87 "Hg10 mi
7:53 pm71 °FPassing clouds.7 mph81%29.85 "Hg9 mi
6:53 pm72 °FPassing clouds.10 mph76%29.85 "Hg10 mi
5:53 pm74 °FPassing clouds.12 mph71%29.84 "Hg10 mi
4:53 pm76 °FPassing clouds.12 mph67%29.84 "Hg10 mi
3:53 pm77 °FPassing clouds.12 mph64%29.86 "Hg10 mi
2:53 pm77 °FPassing clouds.9 mph64%29.88 "Hg10 mi
1:53 pm78 °FPassing clouds.14 mph64%29.89 "Hg10 mi
Weather by CustomWeather, © 2017

See weather overviewHow to use our weather pages